sat.trackr.live / text

‹ back to catalog

LATINSAT B

NORAD 27606 · 2002-058B

PAYLOAD ACTIVE UNKNOWN

§ Identity

Operator
Country
ARGN
Launch date
2002-12-20
Launch site
TYMSC
Launch vehicle
Mass (kg)
RCS (m²)
0.03

External: N2YO · Heavens-Above · Gunter

§ Orbital elements

Epoch: 2026-05-24T19:09:04.849920Z

Period
97.50 min
Inclination
64.5545°
Eccentricity
0.0087310
Mean motion
14.76987621 rev/d
Perigee alt
577.6 km
Apogee alt
700.1 km
Semi-major
7,017.0 km
B*
6.8939e-5
RAAN
322.3639°
Arg perigee
274.5121°
Mean anomaly
84.6012°
Rev number
25,864

§ Raw data

LATINSAT B1 27606U 02058B   26144.79797280  .00000365  00000+0  68939-4 0  99942 27606  64.5545 322.3639 0087310 274.5121  84.6012 14.76987621258648

JSON: /api/v1/satellites/27606 · /tle

For live sub-satellite position, see the globe view (requires WebGL).

§ Visibility from observer

Set your observer location to see the next 7 days of passes ≥ 10°. The values pass through the URL so the page stays shareable.

No JS? Fill the form by hand. The geolocation button needs JavaScript.